Location: Rumah Long Bangan
(2.8362°N, 113.7519°E)
Time: 19:59:29
(UTC+00:00)

Milstar 3 - Pass Details

Date: 24 October 2021
Orbit: 1106 x 5139 km, 28.3° (Epoch: 06 December)

Event Time Altitude Azimuth Distance (km) Brightness Sun altitude
Rises 18:34:50 0° 235° (SW) 8,266 7.0 -52.8°
Enters shadow 18:35:21 - 235° (SW) 8,142 7.0 -52.7°
Exits shadow 19:00:06 63° 138° (SE) 2,236 4.2 -46.7°
Drops below altitude 10° 19:08:32 10° 73° (ENE) 3,589 5.9 -44.7°
Sets 19:10:57 0° 70° (ENE) 4,347 6.5 -44.1°
